Starlink 30176

operational
NORAD ID: 57477 Int'l Des: 2023-107 Owner: SPXS Country: US Constellation: starlink
LEOCIRCULAR

Über Starlink 30176

Beschreibung wird geladen...

Live-Position

3D-Globus wird geladen...

Nächste Überflüge

Höhenverlauf

Altitude vs Time

uPlot chart will show altitude changes over time

Zweizeiliger Elementsatz

1 57477U 23107W 25307.67744483 -.00000060 00000-0 10610-4 0 9992
2 57477 43.0032 303.1856 0000954 272.9134 87.1599 15.02534031126165
Epoch: 3. Nov. 2025 • Age: 14 hours

Aktueller Status

Höhe 567.1 km
Geschwindigkeit 7.58 km/s
Subsatellitenpunkt -31.01°S, 25.66°E
Startdatum 28. Juli 2023
Alter 2.2 years
Typ internet

Technische Details

Klassifizierung Payload
Masse 730.00 kg
Trockenmasse 700.00 kg
Gesamtmasse 730.00 kg
Länge 0.30 m
Durchmesser 4.10 m
Spannweite 29.00 m
Form Box + pan
Hersteller SPXS
Bus-Typ Starlink V2M
Phasenstatus In Orbit
Besitzer/Staat SPXS/US

Große Konstellationen

Loading constellations...